weather.gov     
National Weather Service

Terminal Aerodrome Forecast
NWS Homepage
This page is being discontinued on March 12, 2014.
The same data is available at this site. Please update your bookmarks.
Thank you, and we apologize for the inconvenience.
Please send an email to SR-SRH.Webmaster@noaa.gov with any concerns.


Current Version
Previous Version:    01  02  03  04  05  06  07  08  09  10  11  12  13  14  15  16  17  18  19  20  21  22  23  24  25  26  27  28  29  30  
   31  32  33  34  35  36  37  38  39  40  41  
[Printable]
274
FTUS45 KABQ 301100
TAFAEG
TAF
KAEG 301139Z 3012/3112 VRB06KT P6SM SCT090
     FM302000 28011KT P6SM SCT100
      TEMPO 3022/3024 28011G21KT
     FM310200 13011KT P6SM VCTS FEW050 BKN090CB
     FM310500 13011KT P6SM VCSH FEW050 BKN090
     FM310900 13009KT P6SM FEW050 BKN100=


U.S. Dept. of Commerce
NOAA National Weather Service
1325 East West Highway
Silver Spring, MD 20910
E-mail: w-nws.webmaster@noaa.gov
Page last modified: May 16, 2007
NATIONAL WEATHER SERVICE: for Safety, for Work, for Fun - FOR LIFE